Weather History for Riverside March, CA

Change the Weather History Date:

Wednesday, July 31, 2013

  Actual Average Record
Temperature  
Mean Temperature 72 °F -  
Max Temperature 86 °F 91 °F 102 °F (1996)
Min Temperature 57 °F 60 °F 57 °F (2001)
Cooling Degree Days 6    
Growing Degree Days 22 (Base 50)    
Moisture  
Dew Point 59 °F    
Average Humidity 71    
Maximum Humidity 100    
Minimum Humidity 43    
Precipitation  
Precipitation 0.00 in - - ()
Sea Level Pressure  
Sea Level Pressure 30.03 in    
Wind  
Wind Speed 5 mph (NW)    
Max Wind Speed 13 mph    
Max Gust Speed 18 mph    
Visibility 10 miles    
Events      
Averages and records for this station are not official NWS values.
T = Trace of Precipitation, MM = Missing Value Source: NWS Daily Summary

Daily Weather History Graph

Daily Weather History Graph

Search for Another Location

Airport:

Trip Planner

Search our weather history database for the weather conditions in past years. The results will help you decide how hot, cold, wet, or windy it might be!

Date:

Astronomy

Jul. 31, 2013 Rise Set
Actual Time 6:00 AM PDT 7:50 PM PDT
Civil Twilight 5:32 AM PDT 8:17 PM PDT
Nautical Twilight 4:59 AM PDT 8:50 PM PDT
Astronomical Twilight 4:24 AM PDT 9:25 PM PDT
Moon 12:58 AM PDT (7/31) 3:09 PM PDT (7/31)
Length of Visible Light 14h 44m
Length of Day
13h 49m
Waning Crescent, 31% of the Moon is Illuminated
Jul 31
Waning Crescent
Aug 6
New
Aug 14
First Quarter
Aug 20
Full
Aug 28
Last Quarter

Hourly Weather History & Observations

Time (PDT) Temp. Heat Index Dew Point Humidity Pressure Visibility Wind Dir Wind Speed Gust Speed Precip Events Conditions
12:58 AM 62.4 °F - 56.3 °F 80% 30.07 in 10.0 mi NW 2.3 mph - N/A   Clear
1:58 AM 61.0 °F - 56.1 °F 84% 30.06 in 10.0 mi WNW 2.3 mph - N/A   Clear
2:58 AM 60.6 °F - 56.7 °F 87% 30.05 in 10.0 mi West 3.5 mph - N/A   Clear
3:58 AM 59.2 °F - 55.9 °F 89% 30.04 in 10.0 mi WNW 3.5 mph - N/A   Clear
4:58 AM 58.5 °F - 56.5 °F 93% 30.05 in 10.0 mi WNW 5.8 mph - N/A   Clear
5:58 AM 57.4 °F - 57.4 °F 100% 30.06 in 10.0 mi NW 4.6 mph - N/A   Clear
6:58 AM 59.2 °F - 59.2 °F 100% 30.07 in 10.0 mi WNW 4.6 mph - N/A   Clear
7:58 AM 63.1 °F - 59.7 °F 89% 30.09 in 10.0 mi NW 4.6 mph - N/A   Clear
8:58 AM 66.9 °F - 59.5 °F 77% 30.09 in 10.0 mi NW 5.8 mph - N/A   Clear
9:58 AM 70.7 °F - 60.1 °F 69% 30.07 in 10.0 mi Variable 6.9 mph - N/A   Clear
10:58 AM 74.5 °F - 60.3 °F 61% 30.06 in 10.0 mi NNW 5.8 mph - N/A   Clear
11:58 AM 79.0 °F - 60.3 °F 53% 30.05 in 10.0 mi NNW 8.1 mph - N/A   Clear
12:58 PM 81.5 °F 82.1 °F 60.4 °F 49% 30.03 in 10.0 mi North 5.8 mph - N/A   Partly Cloudy
1:55 PM 85.1 °F 85.0 °F 60.1 °F 43% 30.04 in 10.0 mi NNW 10.4 mph - N/A   Scattered Clouds
2:55 PM 86.0 °F 86.1 °F 61.0 °F 43% 30.03 in 10.0 mi WNW 10.4 mph 18.4 mph N/A   Scattered Clouds
3:55 PM 84.2 °F 84.4 °F 60.4 °F 45% 29.98 in 10.0 mi WNW 11.5 mph - N/A   Partly Cloudy
4:58 PM 83.3 °F 83.5 °F 60.3 °F 46% 29.97 in 10.0 mi WNW 12.7 mph - N/A   Clear
5:58 PM 80.6 °F 81.2 °F 59.9 °F 49% 29.96 in 10.0 mi NW 12.7 mph - N/A   Clear
6:58 PM 76.3 °F - 59.2 °F 55% 29.96 in 10.0 mi WNW 11.5 mph - N/A   Clear
7:58 PM 70.2 °F - 58.1 °F 65% 29.99 in 10.0 mi WNW 10.4 mph - N/A   Clear
8:58 PM 66.4 °F - 57.4 °F 73% 30.00 in 10.0 mi WNW 6.9 mph - N/A   Clear
9:58 PM 63.1 °F - 56.8 °F 80% 30.01 in 10.0 mi WNW 4.6 mph - N/A   Clear
10:58 PM 61.0 °F - 56.5 °F 85% 30.01 in 10.0 mi NW 5.8 mph - N/A   Clear
11:58 PM 59.4 °F - 56.7 °F 91% 30.00 in 10.0 mi WNW 4.6 mph - N/A   Clear